GSAT 20

导读 | 星芒AI

GSAT-20 是印度空间研究组织(ISRO)于2021年发射的一颗通信卫星,旨在增强印度的卫星通信能力。该卫星搭载了多个频段的转发器,支持电视广播、远程教育、远程医疗和政府通信等应用。GSAT-20 采用先进的有效载荷技术,提高了信号传输效率和覆盖范围,主要服务于印度本土及周边地区。其成功发射标志着印度在自主通信卫星领域的重要进展,有助于提升国家的通信基础设施和数字连接能力。

基本信息
目录编号:
62028
目录名称:
GSAT 20
国际标识:
2024-214A
轨道中心:
EARTH
卫星名称:
GSAT 20
卫星全名:
GSAT 20
卫星状态:
在轨 (已飞行345 天)
发射日期:
2024-11-18 UTC
国别 :
印度 (IN)
星等 :
--
轨道信息
数据来源 国际轨道数据 AOE轨道数据
星历时间 2025-10-28T17:56:31+0800
21小时前
查看轨道信息
2025-10-29T05:00:00+0800
10小时前
查看轨道信息
半长轴 42164.504km 42164.868km
偏心率 0.0002568 0.0002611
轨道倾角 0.090° 0.092°
近地点辐角 243.251° 240.684°
升交点赤经 88.330° 87.190°
平近点角 282.575° 92.601°
近地点 35775.541km 35775.723km
远地点 35797.197km 35797.743km
周期 1436.085分钟 1436.104分钟
每日圈数 1.002726 1.002713
详细信息
使用方式:
暂无
2D轨道图
3D轨道图
轨道高度分析图
轨道倾角分析图
轨道综合分析图
查看轨道综合分析图